Regional Weather Roundup
Issued by NWS Goodland, KS

Home | Current Version | Previous Version | Text Only | Print | Product List | Glossary Off
Versions: 1 2 3 4 5 6 7 8 9 10 11 12 13 14 15 16 17 18 19 20 21 22 23 24 25 26 27 28 29 30 31 32 33 34 35 36 37 38 39 40 41 42 43 44 45 46 47 48 49 50

000
ASUS43 KGLD 302108
RWRGLD

GOODLAND FORECAST AREA HOURLY WEATHER ROUNDUP
NATIONAL WEATHER SERVICE GOODLAND KS
200 PM MST FRI JAN 30 2015

...OFFICIAL OBSERVATIONS...

CITY           SKY/WX    TMP DP  RH WIND       PRES   REMARKS
GOODLAND KS    CLOUDY    47  31  53 S18       30.17F
HILL CITY KS   CLOUDY    46  25  43 S16G24    30.28F
IMPERIAL NEB   CLOUDY    52  32  46 S20G28    30.14F
MCCOOK NEB     CLOUDY    48  27  44 S12       30.21F
AKRON CO       CLOUDY    45  29  53 W5        30.09F
BURLINGTON CO  CLOUDY    44  28  53 S31G39    30.15F
LIMON CO       NOT AVBL
$$

...UNOFFICIAL OBSERVATIONS...

CITY           SKY/WX    TMP DP  RH WIND       PRES   REMARKS
COLBY KS       DRIZZLE   45  36  70 S16       30.21F
GOVE KS          N/A     47  32  56 MISG        N/A
NORTON KS      CLOUDY    45  21  39 S13G20    30.25S
SHARON SPRINGS   N/A     45  30  55 S21G28      N/A
KIT CARSON CO    N/A     41  32  69 MISG        N/A
YUMA CO          N/A     50  33  53 S21         N/A
$$



USA.gov is the U.S. government's official web portal to all federal, state and local government web resources and services.